| time (UTC) | temp F | wind direction | speed knots | gust knots | rain 1hr in | rain 24hr in | rain mn in | humidity % | barometer mb |
| 20260505023004 | 61 | 176 | 0.0 | 2.6 | 0.00 | 0.00 | 0.00 | 79 | 1012.3 |
| 20260505022505 | 61 | 169 | 0.0 | 2.6 | 0.00 | 0.00 | 0.00 | 79 | 1012.4 |
| 20260505022004 | 61 | 174 | 0.0 | 4.3 | 0.00 | 0.00 | 0.00 | 79 | 1012.4 |
| 20260505021004 | 61 | 170 | 0.0 | 5.2 | 0.00 | 0.00 | 0.00 | 78 | 1012.3 |
| 20260505020504 | 61 | 208 | 1.7 | 5.2 | 0.00 | 0.00 | 0.00 | 78 | 1012.4 |
| 20260505015504 | 62 | 206 | 0.0 | 2.6 | 0.00 | 0.00 | 0.00 | 77 | 1012.4 |
| 20260505015004 | 62 | 193 | 0.9 | 1.7 | 0.00 | 0.00 | 0.00 | 76 | 1012.4 |
| 20260505014504 | 62 | 184 | 0.9 | 4.3 | 0.00 | 0.00 | 0.00 | 75 | 1012.3 |
| 20260505013504 | 62 | 186 | 0.9 | 5.2 | 0.00 | 0.00 | 0.00 | 74 | 1012.3 |
| 20260505013004 | 62 | 195 | 0.9 | 4.3 | 0.00 | 0.00 | 0.00 | 74 | 1012.3 |
| 20260505012504 | 62 | 207 | 0.9 | 4.3 | 0.00 | 0.00 | 0.00 | 73 | 1012.3 |
| 20260505012004 | 62 | 174 | 0.9 | 4.3 | 0.00 | 0.00 | 0.00 | 73 | 1012.2 |
| 20260505011004 | 63 | 189 | 0.9 | 2.6 | 0.00 | 0.00 | 0.00 | 71 | 1012.2 |
| 20260505010504 | 63 | 218 | 0.9 | 2.6 | 0.00 | 0.00 | 0.00 | 71 | 1012.1 |
| 20260505010004 | 63 | 196 | 0.9 | 2.6 | 0.00 | 0.00 | 0.00 | 70 | 1012.1 |
| 20260505005503 | 63 | 241 | 0.9 | 4.3 | 0.00 | 0.00 | 0.00 | 69 | 1012.1 |
| 20260505004504 | 63 | 175 | 0.9 | 2.6 | 0.00 | 0.00 | 0.00 | 68 | 1012.1 |
| 20260505004003 | 64 | 198 | 0.9 | 2.6 | 0.00 | 0.00 | 0.00 | 67 | 1012.1 |
| 20260505003504 | 64 | 155 | 0.0 | 2.6 | 0.00 | 0.00 | 0.00 | 66 | 1012.0 |
| 20260505003004 | 64 | 209 | 0.9 | 5.2 | 0.00 | 0.00 | 0.00 | 65 | 1012.0 |
| 20260505002504 | 65 | 174 | 0.9 | 5.2 | 0.00 | 0.00 | 0.00 | 65 | 1012.0 |
| 20260505001504 | 65 | 265 | 0.9 | 4.3 | 0.00 | 0.00 | 0.00 | 65 | 1012.0 |
| 20260505001004 | 65 | 191 | 0.9 | 4.3 | 0.00 | 0.00 | 0.00 | 64 | 1012.0 |
| 20260505000504 | 66 | 212 | 0.9 | 6.1 | 0.00 | 0.00 | 0.00 | 63 | 1011.9 |
| 20260504235504 | 66 | 181 | 0.9 | 6.1 | 0.00 | 0.00 | 0.00 | 62 | 1011.8 |
| 20260504235004 | 67 | 202 | 0.9 | 4.3 | 0.00 | 0.00 | 0.00 | 61 | 1011.7 |
| 20260504234504 | 67 | 180 | 0.0 | 4.3 | 0.00 | 0.00 | 0.00 | 60 | 1011.7 |
| 20260504234004 | 67 | 188 | 1.7 | 4.3 | 0.00 | 0.00 | 0.00 | 60 | 1011.5 |
| 20260504233504 | 68 | 181 | 0.0 | 4.3 | 0.00 | 0.00 | 0.00 | 60 | 1011.6 |
| 20260504232505 | 68 | 208 | 1.7 | 5.2 | 0.00 | 0.00 | 0.00 | 60 | 1011.6 |
| 20260504232004 | 69 | 188 | 1.7 | 5.2 | 0.00 | 0.00 | 0.00 | 60 | 1011.4 |
| 20260504231503 | 69 | 187 | 0.9 | 6.1 | 0.00 | 0.00 | 0.00 | 59 | 1011.5 |
| 20260504231004 | 69 | 176 | 1.7 | 8.7 | 0.00 | 0.00 | 0.00 | 59 | 1011.5 |
| 20260504230503 | 70 | 196 | 1.7 | 8.7 | 0.00 | 0.00 | 0.00 | 58 | 1011.5 |
| 20260504230004 | 70 | 167 | 2.6 | 8.7 | 0.00 | 0.00 | 0.00 | 57 | 1011.4 |
| 20260504225505 | 71 | 198 | 0.9 | 6.1 | 0.00 | 0.00 | 0.00 | 54 | 1011.4 |
| 20260504225004 | 72 | 172 | 1.7 | 8.7 | 0.00 | 0.00 | 0.00 | 50 | 1011.5 |
| 20260504224504 | 72 | 179 | 2.6 | 8.7 | 0.00 | 0.00 | 0.00 | 40 | 1011.4 |
| 20260504224004 | 72 | 238 | 1.7 | 6.1 | 0.00 | 0.00 | 0.00 | 40 | 1011.4 |
| 20260504223504 | 72 | 164 | 2.6 | 5.2 | 0.00 | 0.00 | 0.00 | 40 | 1011.4 |
| 20260504223005 | 72 | 179 | 0.9 | 6.1 | 0.00 | 0.00 | 0.00 | 40 | 1011.4 |
| 20260504222505 | 73 | 80 | 1.7 | 6.1 | 0.00 | 0.00 | 0.00 | 40 | 1011.4 |
| 20260504222004 | 73 | 148 | 1.7 | 6.1 | 0.00 | 0.00 | 0.00 | 40 | 1011.4 |
| 20260504221504 | 73 | 229 | 1.7 | 10.4 | 0.00 | 0.00 | 0.00 | 39 | 1011.5 |
| 20260504221004 | 74 | 124 | 1.7 | 10.4 | 0.00 | 0.00 | 0.00 | 39 | 1011.4 |
| 20260504220504 | 74 | 188 | 0.9 | 7.0 | 0.00 | 0.00 | 0.00 | 39 | 1011.4 |
| 20260504220003 | 75 | 163 | 1.7 | 7.0 | 0.00 | 0.00 | 0.00 | 39 | 1011.4 |
| 20260504215503 | 75 | 152 | 0.9 | 7.0 | 0.00 | 0.00 | 0.00 | 38 | 1011.5 |
| 20260504215005 | 75 | 203 | 1.7 | 7.0 | 0.00 | 0.00 | 0.00 | 37 | 1011.5 |
| 20260504214504 | 75 | 238 | 1.7 | 7.0 | 0.00 | 0.00 | 0.00 | 37 | 1011.6 |
| 20260504213504 | 75 | 103 | 0.9 | 7.8 | 0.00 | 0.00 | 0.00 | 37 | 1011.5 |
| 20260504213004 | 75 | 212 | 1.7 | 7.8 | 0.00 | 0.00 | 0.00 | 37 | 1011.6 |
| 20260504212504 | 75 | 177 | 1.7 | 7.0 | 0.00 | 0.00 | 0.00 | 37 | 1011.6 |
| 20260504211504 | 75 | 202 | 2.6 | 7.0 | 0.00 | 0.00 | 0.00 | 37 | 1011.6 |
| 20260504211004 | 75 | 280 | 0.9 | 6.1 | 0.00 | 0.00 | 0.00 | 37 | 1011.4 |
| 20260504210504 | 75 | 190 | 0.9 | 7.0 | 0.00 | 0.00 | 0.00 | 36 | 1011.5 |
| 20260504210004 | 75 | 235 | 1.7 | 7.0 | 0.00 | 0.00 | 0.00 | 36 | 1011.5 |
| 20260504205504 | 75 | 330 | 1.7 | 14.8 | 0.00 | 0.00 | 0.00 | 36 | 1011.5 |
| 20260504205004 | 75 | 205 | 4.3 | 14.8 | 0.00 | 0.00 | 0.00 | 36 | 1011.7 |
| 20260504204503 | 75 | 157 | 1.7 | 7.8 | 0.00 | 0.00 | 0.00 | 36 | 1011.6 |
| 20260504204005 | 75 | 183 | 2.6 | 10.4 | 0.00 | 0.00 | 0.00 | 36 | 1011.7 |
| 20260504203504 | 75 | 132 | 2.6 | 10.4 | 0.00 | 0.00 | 0.00 | 36 | 1011.6 |
| 20260504203004 | 76 | 224 | 2.6 | 7.0 | 0.00 | 0.00 | 0.00 | 36 | 1011.7 |
| 20260504202504 | 75 | 244 | 1.7 | 10.4 | 0.00 | 0.00 | 0.00 | 36 | 1011.8 |
| 20260504202005 | 75 | 247 | 1.7 | 10.4 | 0.00 | 0.00 | 0.00 | 36 | 1011.8 |
| 20260504201504 | 75 | 194 | 2.6 | 8.7 | 0.00 | 0.00 | 0.00 | 37 | 1011.8 |
| 20260504201004 | 75 | 226 | 2.6 | 8.7 | 0.00 | 0.00 | 0.00 | 37 | 1011.8 |
| 20260504200504 | 75 | 53 | 0.9 | 7.0 | 0.00 | 0.00 | 0.00 | 37 | 1011.8 |
| 20260504200003 | 75 | 205 | 1.7 | 7.0 | 0.00 | 0.00 | 0.00 | 37 | 1011.8 |
| 20260504195504 | 75 | 2 | 1.7 | 5.2 | 0.00 | 0.00 | 0.00 | 37 | 1011.9 |
| 20260504195004 | 76 | 226 | 2.6 | 7.8 | 0.00 | 0.00 | 0.00 | 36 | 1011.9 |
| 20260504194504 | 75 | 205 | 4.3 | 7.8 | 0.00 | 0.00 | 0.00 | 37 | 1011.9 |
| 20260504194004 | 75 | 199 | 1.7 | 7.8 | 0.00 | 0.00 | 0.00 | 36 | 1012.0 |
| 20260504193504 | 76 | 183 | 2.6 | 6.1 | 0.00 | 0.00 | 0.00 | 36 | 1012.1 |
| 20260504193004 | 76 | 173 | 1.7 | 6.1 | 0.00 | 0.00 | 0.00 | 37 | 1012.1 |
| 20260504192504 | 76 | 112 | 0.9 | 7.0 | 0.00 | 0.00 | 0.00 | 37 | 1012.2 |
| 20260504192004 | 75 | 98 | 1.7 | 7.0 | 0.00 | 0.00 | 0.00 | 37 | 1012.2 |
| 20260504191504 | 76 | 136 | 0.9 | 7.8 | 0.00 | 0.00 | 0.00 | 36 | 1012.2 |
| 20260504191004 | 75 | 104 | 0.9 | 7.8 | 0.00 | 0.00 | 0.00 | 36 | 1012.3 |
| 20260504190504 | 75 | 146 | 2.6 | 7.8 | 0.00 | 0.00 | 0.00 | 36 | 1012.4 |
| 20260504185504 | 75 | 170 | 3.5 | 10.4 | 0.00 | 0.00 | 0.00 | 36 | 1012.6 |
| 20260504185005 | 75 | 168 | 2.6 | 10.4 | 0.00 | 0.00 | 0.00 | 36 | 1012.6 |
| 20260504184505 | 75 | 282 | 1.7 | 10.4 | 0.00 | 0.00 | 0.00 | 37 | 1012.5 |
| 20260504184005 | 75 | 142 | 1.7 | 5.2 | 0.00 | 0.00 | 0.00 | 35 | 1012.6 |
| 20260504183504 | 75 | 275 | 0.9 | 6.1 | 0.00 | 0.00 | 0.00 | 37 | 1012.6 |
| 20260504183004 | 75 | 254 | 1.7 | 7.0 | 0.00 | 0.00 | 0.00 | 37 | 1012.7 |
| 20260504182504 | 74 | 264 | 0.9 | 7.0 | 0.00 | 0.00 | 0.00 | 37 | 1012.8 |
| 20260504182004 | 74 | 176 | 2.6 | 7.0 | 0.00 | 0.00 | 0.00 | 36 | 1012.9 |
| 20260504181004 | 74 | 161 | 2.6 | 7.0 | 0.00 | 0.00 | 0.00 | 36 | 1013.1 |
| 20260504180503 | 74 | 343 | 1.7 | 7.0 | 0.00 | 0.00 | 0.00 | 37 | 1013.0 |
| 20260504175505 | 74 | 163 | 1.7 | 7.0 | 0.00 | 0.00 | 0.00 | 37 | 1013.1 |
| 20260504175005 | 74 | 211 | 2.6 | 7.0 | 0.00 | 0.00 | 0.00 | 36 | 1013.1 |
| 20260504174504 | 74 | 120 | 1.7 | 10.4 | 0.00 | 0.00 | 0.00 | 37 | 1013.1 |
| 20260504174003 | 74 | 196 | 4.3 | 10.4 | 0.00 | 0.00 | 0.00 | 36 | 1013.1 |
| 20260504173504 | 74 | 118 | 1.7 | 10.4 | 0.00 | 0.00 | 0.00 | 36 | 1013.2 |
| 20260504173005 | 74 | 188 | 2.6 | 10.4 | 0.00 | 0.00 | 0.00 | 35 | 1013.3 |
| 20260504172504 | 74 | 181 | 2.6 | 8.7 | 0.00 | 0.00 | 0.00 | 36 | 1013.3 |
| 20260504172004 | 74 | 21 | 2.6 | 7.8 | 0.00 | 0.00 | 0.00 | 40 | 1013.4 |
| 20260504171504 | 73 | 129 | 1.7 | 7.8 | 0.00 | 0.00 | 0.00 | 37 | 1013.5 |
| 20260504171005 | 73 | 116 | 1.7 | 7.8 | 0.00 | 0.00 | 0.00 | 37 | 1013.6 |
| 20260504151004 | 70 | 221 | 1.7 | 6.1 | 0.00 | 0.00 | 0.00 | 50 | 1014.4 |
| 20260504150504 | 69 | 221 | 0.9 | 5.2 | 0.00 | 0.00 | 0.00 | 49 | 1014.3 |
| 20260504141005 | 66 | 258 | 2.6 | 7.8 | 0.00 | 0.00 | 0.00 | 58 | 1014.8 |
| 20260504140504 | 66 | 247 | 1.7 | 6.1 | 0.00 | 0.00 | 0.00 | 58 | 1014.9 |
| 20260504130503 | 62 | 269 | 1.7 | 2.6 | 0.00 | 0.00 | 0.00 | 68 | 1015.6 |
| 20260504110504 | 51 | 224 | 0.0 | 0.9 | 0.00 | 0.00 | 0.00 | 85 | 1016.6 |
| 20260504100504 | 51 | 255 | 0.0 | 0.9 | 0.00 | 0.00 | 0.00 | 84 | 1016.4 |
| 20260504082004 | 49 | 180 | 0.9 | 4.3 | 0.00 | 0.00 | 0.00 | 83 | 1016.8 |
| 20260504081503 | 49 | 145 | 0.9 | 4.3 | 0.00 | 0.00 | 0.00 | 83 | 1016.8 |
| 20260504081004 | 49 | 171 | 0.0 | 5.2 | 0.00 | 0.00 | 0.00 | 83 | 1016.8 |
| 20260504080504 | 49 | 239 | 0.9 | 5.2 | 0.00 | 0.00 | 0.00 | 83 | 1016.8 |
| 20260504050504 | 42 | 143 | 0.0 | 0.0 | 0.00 | 0.00 | 0.00 | 77 | 1016.9 |
| 20260504050004 | 42 | 142 | 0.0 | 0.0 | 0.00 | 0.00 | 0.00 | 77 | 1016.7 |
| 20260504045504 | 42 | 141 | 0.0 | 0.0 | 0.00 | 0.00 | 0.00 | 77 | 1016.8 |
| 20260504045004 | 42 | 142 | 0.0 | 0.0 | 0.00 | 0.00 | 0.00 | 77 | 1016.8 |
| 20260504044004 | 42 | 142 | 0.0 | 0.0 | 0.00 | 0.00 | 0.00 | 77 | 1016.7 |
| 20260504043504 | 42 | 142 | 0.0 | 0.0 | 0.00 | 0.00 | 0.00 | 76 | 1016.8 |
| 20260504043004 | 43 | 142 | 0.0 | 0.0 | 0.00 | 0.00 | 0.00 | 76 | 1016.7 |
| 20260504042504 | 43 | 142 | 0.0 | 0.0 | 0.00 | 0.00 | 0.00 | 76 | 1016.7 |
| 20260504042004 | 43 | 142 | 0.0 | 0.0 | 0.00 | 0.00 | 0.00 | 76 | 1016.6 |
| 20260504041504 | 43 | 142 | 0.0 | 0.0 | 0.00 | 0.00 | 0.00 | 75 | 1016.5 |
| 20260504041004 | 43 | 139 | 0.0 | 0.0 | 0.00 | 0.00 | 0.00 | 75 | 1016.4 |
| 20260504040505 | 43 | 139 | 0.0 | 0.0 | 0.00 | 0.00 | 0.00 | 75 | 1016.3 |
| 20260504040004 | 43 | 139 | 0.0 | 0.0 | 0.00 | 0.00 | 0.00 | 75 | 1016.2 |
| 20260504035504 | 43 | 139 | 0.0 | 0.0 | 0.00 | 0.00 | 0.00 | 75 | 1016.3 |
| 20260504035004 | 43 | 139 | 0.0 | 0.0 | 0.00 | 0.00 | 0.00 | 75 | 1016.3 |
| 20260504034504 | 43 | 139 | 0.0 | 0.0 | 0.00 | 0.00 | 0.00 | 75 | 1016.2 |
| 20260504034004 | 43 | 139 | 0.0 | 0.0 | 0.00 | 0.00 | 0.00 | 75 | 1016.1 |
| 20260504033505 | 43 | 139 | 0.0 | 0.0 | 0.00 | 0.00 | 0.00 | 74 | 1016.1 |
| 20260504033003 | 43 | 139 | 0.0 | 0.0 | 0.00 | 0.00 | 0.00 | 74 | 1016.0 |
| 20260504032503 | 43 | 139 | 0.0 | 0.0 | 0.00 | 0.00 | 0.00 | 74 | 1016.1 |
| 20260504032005 | 44 | 139 | 0.0 | 0.0 | 0.00 | 0.00 | 0.00 | 73 | 1016.1 |
| 20260504031503 | 44 | 139 | 0.0 | 0.0 | 0.00 | 0.00 | 0.00 | 74 | 1016.0 |
| 20260504031004 | 44 | 139 | 0.0 | 0.0 | 0.00 | 0.00 | 0.00 | 74 | 1016.0 |
| 20260504030504 | 43 | 139 | 0.0 | 0.0 | 0.00 | 0.00 | 0.00 | 74 | 1016.0 |
| 20260504030004 | 44 | 139 | 0.0 | 0.0 | 0.00 | 0.00 | 0.00 | 73 | 1016.1 |
| 20260504025504 | 44 | 139 | 0.0 | 0.0 | 0.00 | 0.00 | 0.00 | 73 | 1016.1 |
| 20260504024503 | 44 | 139 | 0.0 | 0.0 | 0.00 | 0.00 | 0.00 | 73 | 1016.0 |
| 20260504024005 | 44 | 139 | 0.0 | 0.0 | 0.00 | 0.00 | 0.00 | 73 | 1016.0 |
| 20260504023504 | 44 | 139 | 0.0 | 0.0 | 0.00 | 0.00 | 0.00 | 72 | 1016.0 |